Regional Weather Roundup
Issued by NWS

Home | Current Version | Previous Version | Graphics & Text | Print | Product List | Glossary Off
Versions: 1 2 3 4 5 6 7 8 9 10 11 12 13 14 15 16 17 18 19 20 21 22 23 24 25 26 27 28 29 30 31 32 33 34 35 36 37 38 39 40 41 42 43 44 45 46 47 48 49 50

000
ASUS43 KMKX 191021
RWRWI

WISCONSIN REGIONAL WEATHER ROUNDUP
NATIONAL WEATHER SERVICE MILWAUKEE/SULLIVAN WI
500 AM CDT SUN APR 19 2015

NOTE: "FAIR" INDICATES FEW OR NO CLOUDS BELOW 12,000 FEET WITH NO
SIGNIFICANT WEATHER AND/OR OBSTRUCTIONS TO VISIBILITY.

WIZ001-002-006>008-014>016-023>028-191100-
NORTHWEST WISCONSIN

CITY           SKY/WX    TMP DP  RH WIND       PRES   REMARKS
SUPERIOR ARPT  LGT RAIN  37  35  93 E15       29.86F WCI  27
ASHLAND        LGT RAIN  40  38  93 NE7       29.88F
HAYWARD        LGT RAIN  44  34  67 E14G20    29.83F
SIREN          DRIZZLE   46  35  66 SE10G17   29.78F
CUMBERLAND     RAIN      41  34  75 SE13G21   29.81F
RICE LAKE      RAIN      43  36  76 E12G18    29.84F
CHETEK         LGT RAIN  44  36  75 E7        29.84F
LADYSMITH      CLOUDY    45  36  71 E10G17    29.86F
EAU CLAIRE     CLOUDY    46  33  60 E9        29.82F
MENOMONIE      CLOUDY    46  35  64 E10       29.82F
NEW RICHMOND   CLOUDY    46  35  65 SE12G20   29.78F
OSCEOLA        CLOUDY    47  36  65 SE13G20   29.81S
$$

WIZ003>005-009-010-017-018-191100-
NORTH CENTRAL WISCONSIN

CITY           SKY/WX    TMP DP  RH WIND       PRES   REMARKS
MANITOWISH WTR LGT RAIN  43  29  57 SE3       29.93F
ARBOR VITAE    LGT RAIN  44  27  50 SE9       29.93F
WOODRUFF       LGT RAIN  44  27  50 SE9       29.93F
RHINELANDER    CLOUDY    44  23  43 SE8       29.95S
EAGLE RIVER    CLOUDY    42  21  44 S6        29.95S
LAND O LAKES   CLOUDY    42  23  47 SE8       29.94F
PHILLIPS       LGT RAIN  40  35  82 E13       29.86F WCI  33
TOMAHAWK       CLOUDY    46  23  40 CALM      29.93F
MEDFORD        CLOUDY    42  31  65 E9G16     29.86F
MERRILL        CLOUDY    47  22  38 SE7       29.92F
$$

WIZ029-030-035-036-043>047-191100-
CENTRAL WISCONSIN

CITY           SKY/WX    TMP DP  RH WIND       PRES   REMARKS
WAUSAU         CLOUDY    46  23  40 E10       29.90F
MOSINEE        CLOUDY    45  23  42 E9        29.92F
MARSHFIELD     CLOUDY    47  29  49 E13       29.87F
STEVENS POINT  CLOUDY    44  24  46 E10       29.91F
WAUPACA        CLOUDY    47  26  43 NE6       29.94F
WAUTOMA        CLOUDY    49  25  39 E5        29.92F
WISC RAPIDS    CLOUDY    47  24  40 E8        29.90F
CAMP DOUGLAS   CLOUDY    47  31  53 SE8       29.85F
$$

WIZ011>013-019>022-031-037>040-048>050-191100-
NORTHEAST WISCONSIN

CITY           SKY/WX    TMP DP  RH WIND       PRES   REMARKS
ANTIGO         CLOUDY    41  25  51 SE17G26   29.94F
SHAWANO        CLOUDY    45  31  59 E8        29.97F
OCONTO         PTCLDY    42  28  58 E5        29.99F
STURGEON BAY   CLEAR     41  25  52 SE10      30.01F
GREEN BAY      MOCLDY    46  26  45 SE10      29.97F
MANITOWOC      PTCLDY    40  31  70 E5        29.99F
APPLETON       CLOUDY    46  27  46 SE13G18   29.94F
CLINTONVILLE   CLOUDY    43  27  52 E5        29.95F
OSHKOSH        MOCLDY    49  28  44 SE14      29.92F
$$

WIZ032>034-041-042-053>061-191100-
SOUTHWEST WISCONSIN

CITY           SKY/WX    TMP DP  RH WIND       PRES   REMARKS
LA CROSSE      CLOUDY    51  34  52 E6        29.82F
SPARTA         CLOUDY    46  32  58 NE3       29.85F
VIROQUA        CLOUDY    49  32  51 E12       29.82F
BOSCOBEL       CLOUDY    51  34  52 NE5       29.84F
PRAIRIE DU CHI MOCLDY    54  35  48 SE6       29.81F
PLATTEVILLE    CLOUDY    51  37  58 E14       29.83F
$$

WIZ056-057-062-063-064-067-068-191100-
SOUTH CENTRAL WISCONSIN

CITY           SKY/WX    TMP DP  RH WIND       PRES   REMARKS
REEDSBURG      MOCLDY    51  31  47 E7        29.86F
BARABOO/DELLS  MOCLDY    50  29  43 E8        29.87S
LONE ROCK      CLOUDY    51  32  48 E10       29.85F
MINERAL POINT  CLOUDY    52  32  46 E10       29.84F
MADISON        PTCLDY    51  31  46 SE9       29.87F
MIDDLETON      PTCLDY    52  31  45 SE7       29.88S
WATERTOWN      PTCLDY    48  29  48 E13       29.89F
MONROE         MOCLDY    48  34  57 E7        29.85F
JANESVILLE     CLEAR     52  30  43 E5        29.87F
$$

WIZ051-052-058>065-066-070>072-191100-
SOUTHEAST WISCONSIN

CITY           SKY/WX    TMP DP  RH WIND       PRES   REMARKS
MILWAUKEE      CLOUDY    44  31  60 E9        29.95F
WAUKESHA       MOCLDY    43  30  61 E7        29.94F
MILWAUKEE/TIMM CLOUDY    45  28  53 E9        29.96F
RACINE         MOCLDY    45  30  55 E12       29.95F
BURLINGTON     PTCLDY    46  29  51 E9        29.92S
KENOSHA        PTCLDY    46  30  53 E13       29.93F
FOND DU LAC    MOCLDY    48  27  44 SE17      29.92F
SHEBOYGAN      PTCLDY    43  29  57 SE6       29.98F
WEST BEND      CLOUDY    43  28  56 E9        29.95F
JUNEAU         MOCLDY    46  29  50 E13       29.92S
$$

LSZ147-162-191100-
LAKE SUPERIOR

STATION/POSITION TIME  TEMP    WIND        PRES    WAVE
                       AIR SEA DIR/SP/G            HT/PER
                 (UTC) (F)     (DEG/KT/KT) (MB)    (FT/S)
DEVILS ISLAND    1000   36      80/ 16/ 18 1013.9F
PORT WING        0900   37      50/ 11/ 18 1013.2
SAXON HARBOR     0900   40        CALM     1013.9F
$$

LMZ867-665-643>646-191100-
LAKE MICHIGAN

STATION/POSITION TIME  TEMP    WIND        PRES    WAVE
                       AIR SEA DIR/SP/G            HT/PER
                 (UTC) (F)     (DEG/KT/KT) (MB)    (FT/S)
CHAMBERS ISLAND  0900   40      40/  3/  4 1017.3S
NORTHPORT PIER   1001   40      90/ 11/ 13 1016.6F
KEWAUNEE LAKESHO 0900   42      70/  4/  6 1015.5F
SHEBOYGAN LAKESH 1000   44     130/  5/  6 1015.9F
PORT WASHINGTON  0900   45     100/  7/  9 1016.3F
MILWAUKEE LAKESH 1000   43      70/ 10/ 12   N/A
KENOSHA   LAKESH 1000   43      70/  6/  7 1013.5F
$$

TC  - TEMPERATURE IN CELSIUS
VSB - VISIBILITY IN STATUTE MILES
WCI - WIND CHILL INDEX
HX  - HEAT INDEX




USA.gov is the U.S. government's official web portal to all federal, state and local government web resources and services.